[[{"header":{"parameterUnit":"m.s-1","parameterCategory":2,"la1":30.2991,"la2":30.254,"lo1":-89.0895,"lo2":-89.0444,"dy":0.0017,"dx":0.0017,"nx":28,"ny":28,"refTime":"2025-05-28T03:00:00:Z","depth":"0","parameterNumber":2,"parameterNumberName":"U-component_of_CURRENTS"},"data":[0,0,0,0,0,0,0,0,0,0,0,0,0,0,0,0,0,0,0,0,0,0,0,0,0,0,0,0,0,0,0,0,0,0,0,0,0,0,0,0,0,0,0,0,0,0,0,0,0,0,0,0,0,0,0,0,0,0,0.3389,0.3389,0,0.3441,0.3442,0.3442,0.3404,0.3402,0.3401,0.3399,0.337,0.3371,0.3371,0,0,0,0,0,0,0,0,0,0,0,0,0,0.3328,0.3329,0.3389,0.339,0.339,0.3441,0.3442,0.3442,0.3404,0.3402,0.3401,0.3399,0.337,0.3371,0.3372,0,0,0,0,0,0,0,0,0,0,0,0,0,0.3363,0.3329,0.3389,0.3379,0.3379,0.3441,0.3442,0.3442,0.3405,0.3402,0.34,0.3398,0.337,0.3371,0.3372,0.3423,0,0,0.3374,0.3375,0,0,0,0,0,0,0,0,0.3361,0.3365,0.338,0.338,0.338,0.3416,0.341,0.3432,0.3405,0.3393,0.3399,0.3397,0.3381,0.3381,0.3394,0.3421,0.342,0.3375,0.3375,0.3376,0.3376,0,0,0,0,0,0,0,0.3358,0.3363,0.3407,0.3381,0.3381,0.3397,0.3399,0.3415,0.3396,0.3394,0.3391,0.3401,0.338,0.3393,0.3393,0.3419,0.3375,0.3375,0.3376,0.3376,0.3521,0.3524,0,0,0,0,0,0,0.3355,0.336,0.3406,0.3409,0.3367,0.34,0.3402,0.3405,0.3397,0.3395,0.3403,0.3399,0.3393,0.3392,0.3391,0.3491,0.3376,0.3376,0.3377,0.3517,0.3521,0.3525,0,0,0,0,0,0,0.3353,0.3358,0.3404,0.3388,0.3395,0.3403,0.3407,0.3407,0.3421,0.3406,0.3401,0.3417,0.3391,0.339,0.3431,0.3487,0.3377,0.3378,0.3514,0.3519,0.3523,0.3664,0,0,0,0,0,0,0.3351,0.3357,0.3364,0.3388,0.3396,0.3454,0.341,0.341,0.3431,0.3427,0.3417,0.3411,0.3389,0.343,0.3432,0.3487,0.3378,0.3509,0.3516,0.3522,0.3655,0.3673,0.3688,0,0,0,0,0,0.3349,0.3369,0.3364,0.337,0.3402,0.3456,0.3463,0.3459,0.3434,0.3459,0.3459,0.3412,0.347,0.3434,0.3435,0.3491,0.3506,0.3514,0.3521,0.3648,0.367,0.3688,0,0,0,0,0,0,0.3344,0.3369,0.3362,0.3387,0.3424,0.345,0.3474,0.3473,0.3494,0.3483,0.3457,0.3455,0.3515,0.3489,0.345,0.3553,0.348,0.3488,0.3576,0.3596,0.3612,0.3636,0.3379,0,0,0,0,0,0.3349,0.3369,0.34,0.3422,0.3442,0.3461,0.3482,0.3484,0.3505,0.3511,0.3508,0.3514,0.3551,0.3558,0.3578,0.3634,0.3639,0.3671,0.3687,0.3701,0.3724,0.3821,0.3849,0.3549,0.3549,0.3549,0,0,0.335,0.337,0.3378,0.3424,0.3447,0.3504,0.3467,0.3509,0.3575,0.3506,0.3583,0.3574,0.3581,0.365,0.3673,0.3631,0.3785,0.3711,0.3723,0.3738,0.3832,0.3861,0.3887,0.3554,0.3553,0.3552,0,0,0.3375,0.3387,0.3414,0.3456,0.3503,0.3536,0.3553,0.3592,0.3627,0.3699,0.3678,0.3711,0.3746,0.3775,0.3792,0.3915,0.3875,0.3909,0.4007,0.4102,0.4127,0.415,0.417,0.4194,0.391,0.3911,0.3911,0,0.3377,0.3418,0.3436,0.3485,0.3534,0.3557,0.3619,0.3681,0.3731,0.3776,0.3738,0.3821,0.3818,0.3924,0.3968,0.3955,0.3976,0.3927,0.4125,0.4148,0.4169,0.4184,0.4208,0.3918,0.3917,0.3917,0.3916,0,0.3427,0.3469,0.3498,0.3573,0.3631,0.3692,0.3777,0.3841,0.3876,0.392,0.4018,0.4024,0.4063,0.4077,0.4064,0.4209,0.4163,0.414,0.4074,0.4208,0.4214,0.4237,0.3929,0.3926,0.3924,0.3922,0,0,0.3407,0.3512,0.352,0.3577,0.3685,0.3742,0.3876,0.4,0.4081,0.4133,0.4231,0.4307,0.4278,0.4299,0.4281,0.4362,0.4517,0.4321,0.4323,0.434,0.4688,0.4445,0.4445,0.4537,0.4542,0.4547,0.4624,0,0.3445,0.3543,0.3599,0.3725,0.3792,0.3879,0.4004,0.4117,0.4202,0.4302,0.4347,0.442,0.4379,0.4386,0.4474,0.4511,0.4588,0.4495,0.4558,0.4558,0.4327,0.4468,0.4166,0.4192,0.4645,0.4649,0.4652,0,0.3472,0.3545,0.3652,0.3812,0.385,0.3935,0.4121,0.4234,0.439,0.4449,0.4525,0.4544,0.4664,0.4601,0.4756,0.47,0.472,0.4737,0.474,0.4483,0.4359,0.4138,0.4216,0.4092,0.4685,0.4683,0.468,0,0.3441,0.3588,0.3678,0.3729,0.3905,0.3986,0.4093,0.4259,0.4365,0.453,0.4579,0.4715,0.4754,0.4854,0.4864,0.4844,0.5004,0.4971,0.4768,0.4747,0.4485,0.4432,0.4448,0.5107,0.5106,0.5106,0.5106,0,0.346,0.3534,0.3667,0.3716,0.3855,0.3975,0.4128,0.4252,0.4408,0.4519,0.4629,0.4706,0.483,0.4903,0.4934,0.4896,0.5061,0.4813,0.4776,0.4517,0.4468,0.4338,0.433,0.5109,0.5108,0.5108,0.5107,0,0.3411,0.3488,0.3605,0.3777,0.3835,0.3929,0.4128,0.4243,0.4379,0.4519,0.4568,0.4734,0.4816,0.4876,0.5007,0.4929,0.4785,0.4894,0.4531,0.4447,0.4085,0.4094,0.3952,0.3861,0.4695,0.469,0.4685,0,0.3399,0.3445,0.3613,0.3691,0.3772,0.392,0.4034,0.4209,0.4322,0.4517,0.4579,0.4686,0.4718,0.4765,0.4668,0.4632,0.4594,0.4333,0.4239,0.4042,0.4032,0.3931,0.3862,0.3952,0.3942,0.3934,0.3927,0,0.3401,0.3442,0.3543,0.3684,0.3804,0.3925,0.4084,0.4152,0.4345,0.4411,0.4502,0.4527,0.4499,0.4302,0.4208,0.416,0.4071,0.4155,0.4094,0.3569,0.3328,0.3225,0.3891,0.3854,0.3862,0.3867,0.3871,0.3874,0.3404,0.3461,0.3583,0.371,0.3822,0.3908,0.3937,0.4064,0.4139,0.4149,0.4311,0.4175,0.4019,0.3805,0.3742,0.3369,0.3525,0.3226,0.3291,0.3235,0.3027,0.3477,0.33,0.3304,0.3307,0.331,0.3313,0,0.3412,0.3488,0.3618,0.373,0.3771,0.3852,0.3954,0.3902,0.3866,0.3861,0.3828,0.3524,0.326,0.3107,0.2728,0.2545,0.2478,0.2487,0.2339,0.2352,0.2861,0.2703,0.2213,0.2214,0.2214,0.2214,0.2214,0.2214,0.3436,0.3526,0.3582,0.3642,0.3683,0.3634,0.3622,0.3534,0.347,0.3174,0.291,0.2836,0.2691,0.2402,0.2078,0.2009,0.1933,0.1736,0.1917,0.2313,0.2389,0.2461,0.2311,0.1747,0.1747,0.122,0.1216,0.1213]},{"header":{"parameterUnit":"m.s-1","parameterCategory":2,"la1":30.2991,"la2":30.254,"lo1":-89.0895,"lo2":-89.0444,"dy":0.0017,"dx":0.0017,"nx":28,"ny":28,"refTime":"2025-05-28T03:00:00:Z","depth":"0","parameterNumber":3,"parameterNumberName":"V-component_of_CURRENTS"},"data":[0,0,0,0,0,0,0,0,0,0,0,0,0,0,0,0,0,0,0,0,0,0,0,0,0,0,0,0,0,0,0,0,0,0,0,0,0,0,0,0,0,0,0,0,0,0,0,0,0,0,0,0,0,0,0,0,0,0,0.0271,0.0271,0,0.0278,0.0278,0.0278,0.0263,0.0263,0.0262,0.0262,0.0264,0.0265,0.0265,0,0,0,0,0,0,0,0,0,0,0,0,0,0.0235,0.0236,0.0271,0.0271,0.0271,0.0278,0.0278,0.0278,0.0263,0.0263,0.0262,0.0262,0.0264,0.0265,0.0265,0,0,0,0,0,0,0,0,0,0,0,0,0,0.0247,0.0236,0.0271,0.0265,0.0265,0.0278,0.0278,0.0278,0.0263,0.0263,0.0262,0.0262,0.0264,0.0265,0.0265,0.0282,0,0,0.0267,0.0268,0,0,0,0,0,0,0,0,0.0246,0.0248,0.0266,0.0266,0.0265,0.027,0.0266,0.0279,0.0264,0.0263,0.0262,0.0261,0.0267,0.0267,0.0269,0.0282,0.0282,0.0267,0.0268,0.0268,0.0268,0,0,0,0,0,0,0,0.0245,0.0247,0.0273,0.0266,0.0266,0.0259,0.026,0.0269,0.0268,0.0263,0.0262,0.0265,0.0266,0.0268,0.0269,0.0282,0.0267,0.0268,0.0268,0.0269,0.0318,0.0319,0,0,0,0,0,0,0.0247,0.0247,0.0273,0.0273,0.0255,0.026,0.0261,0.0268,0.0268,0.0267,0.0265,0.0264,0.0267,0.0268,0.0269,0.0303,0.0268,0.0269,0.0269,0.0317,0.0318,0.0319,0,0,0,0,0,0,0.0247,0.025,0.0273,0.026,0.0263,0.0262,0.027,0.0269,0.0272,0.0269,0.0268,0.0269,0.0267,0.0268,0.0276,0.0302,0.0269,0.027,0.0316,0.0317,0.0319,0.0363,0,0,0,0,0,0,0.0246,0.025,0.0255,0.0261,0.0264,0.0288,0.027,0.027,0.0275,0.0273,0.0273,0.0272,0.0266,0.0275,0.0276,0.0303,0.027,0.0315,0.0317,0.0318,0.036,0.0365,0.037,0,0,0,0,0,0.0244,0.0261,0.0256,0.0259,0.0272,0.0289,0.029,0.0286,0.0275,0.0285,0.0277,0.0272,0.0287,0.0276,0.0277,0.0305,0.0314,0.0316,0.0318,0.0358,0.0364,0.037,0,0,0,0,0,0,0.0249,0.0261,0.0255,0.0274,0.0282,0.0287,0.0297,0.0291,0.0293,0.029,0.028,0.0279,0.0298,0.0294,0.0282,0.0324,0.0302,0.0304,0.0332,0.0338,0.0342,0.0375,0.0271,0,0,0,0,0,0.0253,0.0267,0.0274,0.0289,0.0296,0.0296,0.0301,0.0299,0.0302,0.0302,0.0299,0.03,0.0309,0.0315,0.0321,0.0343,0.0361,0.0363,0.0368,0.0372,0.0399,0.0462,0.0475,0.0326,0.0326,0.0326,0,0,0.0258,0.0267,0.0273,0.0291,0.0297,0.0319,0.0298,0.0314,0.0331,0.0303,0.0324,0.0317,0.0318,0.0341,0.035,0.034,0.0416,0.0374,0.0378,0.0404,0.0465,0.048,0.0493,0.0327,0.0327,0.0327,0,0,0.0285,0.0285,0.0309,0.0319,0.0334,0.0337,0.0343,0.0351,0.0355,0.037,0.0357,0.0369,0.0374,0.0389,0.0395,0.0434,0.0438,0.0428,0.0484,0.0543,0.0557,0.0569,0.0579,0.0591,0.0433,0.0433,0.0433,0,0.029,0.0322,0.0319,0.0345,0.0359,0.0349,0.0379,0.0386,0.0393,0.0411,0.0383,0.0419,0.0406,0.0459,0.0463,0.0449,0.0466,0.0459,0.0552,0.0565,0.0577,0.0584,0.0598,0.0436,0.0435,0.0435,0.0435,0,0.0337,0.036,0.0378,0.0407,0.0419,0.0445,0.0452,0.047,0.0466,0.0475,0.0516,0.0504,0.0534,0.0524,0.0501,0.0579,0.0556,0.0549,0.054,0.0595,0.0598,0.0611,0.0439,0.0438,0.0437,0.0437,0,0,0.0359,0.0404,0.0409,0.0435,0.0455,0.0475,0.0509,0.0549,0.0596,0.0589,0.0659,0.0649,0.0648,0.0656,0.0637,0.0676,0.0742,0.0648,0.065,0.0663,0.0847,0.0774,0.0781,0.0757,0.0761,0.0763,0.0804,0,0.04,0.0466,0.0471,0.0527,0.0564,0.0565,0.0605,0.0634,0.0659,0.0723,0.0724,0.0776,0.0698,0.0726,0.075,0.0768,0.0786,0.0731,0.0789,0.079,0.0725,0.0798,0.0779,0.081,0.0817,0.0819,0.0821,0,0.0448,0.0488,0.0553,0.0608,0.0623,0.0649,0.0724,0.076,0.0833,0.0861,0.0906,0.0914,0.097,0.09,0.0949,0.092,0.0886,0.0878,0.0879,0.0816,0.0745,0.0764,0.0834,0.0759,0.0841,0.084,0.0838,0,0.0481,0.0544,0.0599,0.0615,0.0675,0.0706,0.0738,0.0804,0.0873,0.0966,0.1047,0.1079,0.1146,0.1122,0.1071,0.1033,0.1123,0.1069,0.0961,0.0953,0.0953,0.0939,0.097,0.1104,0.1104,0.1104,0.1104,0,0.0528,0.0572,0.0621,0.0653,0.0736,0.0747,0.0849,0.0894,0.0999,0.113,0.1126,0.1253,0.1215,0.1247,0.1153,0.1107,0.1186,0.0998,0.0981,0.0959,0.0947,0.0891,0.0846,0.1105,0.1105,0.1105,0.1104,0,0.0561,0.059,0.0663,0.0729,0.0756,0.0814,0.0923,0.1017,0.1095,0.1278,0.1327,0.1429,0.1477,0.1389,0.138,0.1239,0.113,0.1127,0.1071,0.1047,0.0843,0.0799,0.0814,0.0794,0.1028,0.1026,0.1025,0,0.0588,0.063,0.072,0.0779,0.0812,0.0899,0.0986,0.1067,0.1187,0.1402,0.152,0.1613,0.1713,0.1627,0.141,0.1234,0.1138,0.1061,0.0976,0.0856,0.0798,0.0757,0.0737,0.0979,0.0978,0.0977,0.0976,0,0.0648,0.0676,0.0739,0.0856,0.0946,0.1063,0.1188,0.1296,0.1441,0.1612,0.1844,0.1937,0.1847,0.1692,0.1405,0.126,0.1005,0.103,0.0963,0.0818,0.0729,0.0692,0.0886,0.0966,0.0967,0.0968,0.0969,0.0969,0.0695,0.0751,0.0835,0.0944,0.1062,0.1224,0.1336,0.1505,0.1719,0.1984,0.2057,0.2206,0.192,0.1546,0.1345,0.0922,0.0947,0.0786,0.0758,0.0738,0.0686,0.0821,0.0842,0.0842,0.0842,0.0842,0.0842,0,0.0757,0.0821,0.0925,0.1067,0.1212,0.1258,0.148,0.1624,0.1894,0.2116,0.2308,0.2194,0.1878,0.1495,0.0921,0.0688,0.062,0.0579,0.0548,0.0552,0.0733,0.0696,0.0619,0.0619,0.0619,0.0619,0.0619,0.0619,0.0796,0.0896,0.0944,0.1169,0.128,0.1481,0.1613,0.1845,0.2029,0.2268,0.2307,0.2314,0.1974,0.1118,0.0599,0.0503,0.0403,0.0343,0.0323,0.0453,0.0471,0.0488,0.0444,0.0315,0.0315,0.0162,0.016,0.0159]}],[{"header":{"parameterUnit":"m.s-1","parameterCategory":2,"la1":30.2991,"la2":30.254,"lo1":-89.0895,"lo2":-89.0444,"dy":0.0017,"dx":0.0017,"nx":28,"ny":28,"refTime":"2025-05-28T03:00:00:Z","depth":"2","parameterNumber":2,"parameterNumberName":"U-component_of_CURRENTS"},"data":[0,0,0,0,0,0,0,0,0,0,0,0,0,0,0,0,0,0,0,0,0,0,0,0,0,0,0,0,0,0,0,0,0,0,0,0,0,0,0,0,0,0,0,0,0,0,0,0,0,0,0,0,0,0,0,0,0,0,0.2568,0.2568,0,0.2575,0.2574,0.2574,0.2568,0.2568,0.2568,0.2568,0.2574,0.2574,0.2574,0,0,0,0,0,0,0,0,0,0,0,0,0,0.2573,0.2573,0.2568,0.2568,0.2568,0.2575,0.2574,0.2574,0.2568,0.2568,0.2568,0.2568,0.2574,0.2574,0.2574,0,0,0,0,0,0,0,0,0,0,0,0,0,0.2572,0.2573,0.2568,0.2568,0.2568,0.2575,0.2574,0.2574,0.2568,0.2568,0.2568,0.2568,0.2574,0.2574,0.2574,0.2576,0,0,0.2575,0.2575,0,0,0,0,0,0,0,0,0.2572,0.2571,0.2568,0.2568,0.2568,0.2573,0.2579,0.2576,0.2568,0.2565,0.2568,0.2568,0.2575,0.2575,0.2573,0.2576,0.2576,0.2575,0.2575,0.2575,0.2575,0,0,0,0,0,0,0,0.2572,0.2571,0.2568,0.2568,0.2569,0.2576,0.2576,0.2578,0.2568,0.2565,0.2566,0.2571,0.2575,0.2572,0.2573,0.2576,0.2575,0.2575,0.2575,0.2575,0.2689,0.2692,0,0,0,0,0,0,0.2575,0.2571,0.2567,0.2568,0.2573,0.2576,0.2575,0.2569,0.2568,0.2569,0.2571,0.2571,0.2572,0.2573,0.2573,0.265,0.2575,0.2575,0.2576,0.2686,0.2689,0.2693,0,0,0,0,0,0,0.2575,0.2575,0.2567,0.2573,0.2573,0.2576,0.2569,0.2569,0.2583,0.2573,0.2573,0.2587,0.2572,0.2573,0.2594,0.2647,0.2575,0.2576,0.2683,0.2687,0.2691,0.2756,0,0,0,0,0,0,0.2575,0.2574,0.2578,0.2573,0.2573,0.2588,0.257,0.257,0.2587,0.2587,0.2586,0.2586,0.2572,0.2594,0.2594,0.2646,0.2576,0.2679,0.2685,0.269,0.275,0.2762,0.2772,0,0,0,0,0,0.2575,0.2583,0.2578,0.2578,0.2575,0.2589,0.259,0.2591,0.2588,0.2601,0.2601,0.2587,0.263,0.2595,0.2595,0.2649,0.2676,0.2683,0.2689,0.2745,0.276,0.2772,0,0,0,0,0,0,0.2588,0.2583,0.2577,0.2582,0.2593,0.2589,0.2606,0.2604,0.2613,0.2615,0.2602,0.2602,0.2645,0.2642,0.2604,0.2703,0.266,0.2666,0.2703,0.2716,0.2727,0.275,0.2576,0,0,0,0,0,0.2592,0.2596,0.2595,0.2602,0.2611,0.2611,0.262,0.2619,0.2624,0.2628,0.2633,0.2648,0.267,0.2686,0.2697,0.274,0.2756,0.2785,0.2796,0.2805,0.2828,0.2918,0.2939,0.2714,0.2714,0.2714,0,0,0.2598,0.2598,0.26,0.2606,0.2614,0.2631,0.2616,0.2636,0.2653,0.2628,0.2663,0.2677,0.2688,0.2737,0.276,0.2742,0.2871,0.2813,0.282,0.2839,0.2927,0.2949,0.2968,0.2718,0.2717,0.2717,0,0,0.2618,0.2617,0.2628,0.2637,0.2654,0.2659,0.267,0.2681,0.2692,0.2744,0.272,0.2773,0.2816,0.2826,0.2841,0.2925,0.2919,0.2936,0.3015,0.3101,0.3121,0.3138,0.3151,0.3169,0.2949,0.295,0.295,0,0.2628,0.2636,0.2638,0.2653,0.2649,0.2676,0.2678,0.271,0.2729,0.2757,0.2778,0.2871,0.2873,0.2925,0.2961,0.2951,0.2975,0.2955,0.3115,0.3133,0.3149,0.3159,0.3178,0.2953,0.2953,0.2953,0.2952,0,0.2638,0.2663,0.2678,0.2697,0.2691,0.2713,0.2729,0.278,0.2826,0.2862,0.2952,0.2979,0.3047,0.3059,0.3042,0.3146,0.3113,0.3108,0.3076,0.3176,0.3179,0.3197,0.2959,0.2958,0.2956,0.2955,0,0,0.263,0.2675,0.2685,0.271,0.2708,0.2722,0.2764,0.2819,0.2916,0.2974,0.3071,0.3135,0.3179,0.3199,0.3183,0.326,0.3379,0.3245,0.3248,0.3247,0.3531,0.3339,0.3339,0.3408,0.3413,0.3416,0.3472,0,0.2647,0.2665,0.2678,0.273,0.2732,0.277,0.2831,0.2883,0.2975,0.3096,0.3146,0.3243,0.3219,0.3278,0.335,0.3369,0.3438,0.3362,0.3445,0.3447,0.3256,0.3359,0.3068,0.308,0.3489,0.3492,0.3495,0,0.2646,0.2656,0.266,0.2759,0.2773,0.2818,0.2925,0.3,0.3148,0.3217,0.3317,0.3372,0.3451,0.3449,0.3561,0.3515,0.3545,0.3564,0.3567,0.3385,0.3291,0.3057,0.3098,0.3525,0.3523,0.352,0.3518,0,0.2595,0.2671,0.267,0.2681,0.2776,0.2826,0.291,0.3038,0.3101,0.3293,0.3376,0.3492,0.3557,0.3637,0.3669,0.3645,0.3791,0.3757,0.3603,0.3587,0.3354,0.3309,0.3879,0.3879,0.3879,0.3879,0.3878,0,0.2587,0.2625,0.2674,0.2687,0.2772,0.2827,0.297,0.3091,0.3209,0.3312,0.3441,0.3515,0.3626,0.3703,0.3725,0.3703,0.384,0.3637,0.3612,0.3361,0.3318,0.372,0.3701,0.3881,0.388,0.388,0.3879,0,0.2552,0.2574,0.2628,0.272,0.2749,0.2821,0.2948,0.3077,0.3202,0.3325,0.337,0.3525,0.3631,0.3698,0.3817,0.3745,0.3766,0.3727,0.338,0.3311,0.3483,0.3467,0.3562,0.3556,0.3551,0.3547,0.3543,0,0.2532,0.2537,0.2625,0.2653,0.2708,0.2807,0.2895,0.3034,0.311,0.3318,0.335,0.3498,0.3541,0.3598,0.3545,0.352,0.3662,0.3229,0.3132,0.3496,0.3463,0.3454,0.3445,0.2841,0.2832,0.2825,0.2819,0,0.2506,0.2546,0.2585,0.2609,0.2687,0.2771,0.2875,0.2882,0.3072,0.3145,0.3225,0.3273,0.3343,0.3167,0.3138,0.3093,0.3202,0.3073,0.3611,0.2945,0.2816,0.2782,0.2798,0.2754,0.2761,0.2766,0.2769,0.2772,0.2501,0.2502,0.2524,0.2587,0.2635,0.2658,0.2686,0.2764,0.2796,0.2835,0.2975,0.2954,0.2967,0.2735,0.2631,0.2555,0.2779,0.2657,0.2681,0.2713,0.2598,0.2466,0.2314,0.2318,0.2321,0.2324,0.2327,0,0.2441,0.2458,0.2487,0.2516,0.2528,0.2601,0.2615,0.2567,0.254,0.2611,0.2606,0.2338,0.2191,0.223,0.1989,0.1937,0.1947,0.1867,0.1876,0.1941,0.1999,0.185,0.1366,0.1363,0.136,0.1358,0,0,0.24,0.2376,0.2389,0.2377,0.2415,0.2329,0.2305,0.2245,0.2194,0.2062,0.2021,0.212,0.2175,0.1771,0.168,0.1493,0.172,0.1423,0.2194,0.2274,0.2329,0.2448,0.2289,0,0,0,0,0]},{"header":{"parameterUnit":"m.s-1","parameterCategory":2,"la1":30.2991,"la2":30.254,"lo1":-89.0895,"lo2":-89.0444,"dy":0.0017,"dx":0.0017,"nx":28,"ny":28,"refTime":"2025-05-28T03:00:00:Z","depth":"2","parameterNumber":3,"parameterNumberName":"V-component_of_CURRENTS"},"data":[0,0,0,0,0,0,0,0,0,0,0,0,0,0,0,0,0,0,0,0,0,0,0,0,0,0,0,0,0,0,0,0,0,0,0,0,0,0,0,0,0,0,0,0,0,0,0,0,0,0,0,0,0,0,0,0,0,0,0.013,0.013,0,0.0128,0.0128,0.0128,0.0124,0.0123,0.0123,0.0123,0.0135,0.0135,0.0135,0,0,0,0,0,0,0,0,0,0,0,0,0,0.01,0.0101,0.013,0.013,0.013,0.0128,0.0128,0.0128,0.0124,0.0123,0.0123,0.0123,0.0135,0.0135,0.0135,0,0,0,0,0,0,0,0,0,0,0,0,0,0.0106,0.0101,0.013,0.0128,0.0128,0.0128,0.0128,0.0128,0.0124,0.0123,0.0123,0.0123,0.0134,0.0135,0.0135,0.0139,0,0,0.0137,0.0137,0,0,0,0,0,0,0,0,0.0106,0.0107,0.0128,0.0128,0.0128,0.0127,0.0122,0.0132,0.0124,0.0124,0.0123,0.0123,0.0134,0.0134,0.0133,0.014,0.014,0.0137,0.0137,0.0137,0.0138,0,0,0,0,0,0,0,0.0106,0.0107,0.0128,0.0128,0.0128,0.0117,0.0118,0.0123,0.0129,0.0124,0.0124,0.0125,0.0134,0.0132,0.0133,0.014,0.0137,0.0137,0.0138,0.0138,0.0165,0.0165,0,0,0,0,0,0,0.0109,0.0107,0.0128,0.0128,0.0117,0.0118,0.0119,0.0126,0.0129,0.0129,0.0125,0.0125,0.0131,0.0132,0.0133,0.0163,0.0137,0.0138,0.0138,0.0164,0.0165,0.0165,0,0,0,0,0,0,0.0109,0.0111,0.0128,0.0118,0.0119,0.0119,0.0127,0.0126,0.0127,0.0129,0.013,0.0127,0.0131,0.0133,0.0142,0.0162,0.0138,0.0139,0.0164,0.0165,0.0165,0.0205,0,0,0,0,0,0,0.0108,0.0111,0.0117,0.0118,0.012,0.0137,0.0127,0.0126,0.0128,0.0128,0.0131,0.0132,0.0132,0.0141,0.0143,0.0162,0.0139,0.0163,0.0164,0.0165,0.0204,0.0207,0.0211,0,0,0,0,0,0.0107,0.0119,0.0117,0.012,0.0128,0.0137,0.0138,0.0136,0.0128,0.0135,0.0134,0.0132,0.0147,0.0142,0.0143,0.0164,0.0163,0.0164,0.0165,0.0202,0.0207,0.0211,0,0,0,0,0,0,0.011,0.012,0.0118,0.0132,0.0137,0.0137,0.0144,0.0138,0.014,0.0141,0.0137,0.0138,0.0153,0.015,0.0144,0.0173,0.0155,0.0157,0.0183,0.0187,0.0191,0.021,0.0139,0,0,0,0,0,0.0113,0.0125,0.013,0.0141,0.0146,0.0143,0.0146,0.0145,0.0147,0.0148,0.0148,0.015,0.0158,0.0165,0.0168,0.0185,0.0183,0.0198,0.0201,0.0204,0.022,0.024,0.0247,0.0169,0.0169,0.0169,0,0,0.0118,0.0124,0.013,0.0142,0.0146,0.0162,0.0145,0.0155,0.0169,0.015,0.0167,0.0161,0.0163,0.0182,0.0189,0.0183,0.022,0.0206,0.0209,0.0223,0.0242,0.025,0.0257,0.0169,0.0169,0.0169,0,0,0.0139,0.0139,0.016,0.0167,0.0177,0.0176,0.018,0.0183,0.0186,0.0193,0.0189,0.0198,0.0197,0.0215,0.022,0.0246,0.0235,0.024,0.0281,0.0299,0.0307,0.0313,0.0296,0.0301,0.0246,0.0246,0.0246,0,0.0143,0.0172,0.0166,0.0189,0.0202,0.0185,0.0213,0.0212,0.0216,0.0231,0.0203,0.0229,0.0219,0.0269,0.0267,0.0257,0.0251,0.0265,0.0306,0.0312,0.0318,0.03,0.0304,0.0248,0.0248,0.0248,0.0248,0,0.0184,0.0205,0.0218,0.0242,0.0252,0.0272,0.0275,0.0283,0.0272,0.0275,0.0307,0.0295,0.032,0.0309,0.0289,0.0335,0.031,0.0305,0.0298,0.0329,0.0306,0.0311,0.0251,0.025,0.025,0.0249,0,0,0.0203,0.0241,0.0245,0.0272,0.0285,0.0302,0.0325,0.0353,0.0393,0.0371,0.0428,0.0411,0.0409,0.0415,0.0405,0.0407,0.0416,0.037,0.037,0.0359,0.0433,0.039,0.0389,0.0419,0.0421,0.0422,0.0393,0,0.0239,0.0298,0.0302,0.0353,0.0387,0.0383,0.0418,0.0438,0.0447,0.0493,0.0483,0.0526,0.0451,0.0479,0.0466,0.0445,0.0433,0.0423,0.0401,0.04,0.0364,0.0395,0.0407,0.0381,0.0397,0.0397,0.0398,0,0.0281,0.0318,0.0379,0.0435,0.0451,0.0471,0.0535,0.0565,0.0613,0.0632,0.0658,0.0656,0.0671,0.0604,0.0567,0.0564,0.0498,0.0459,0.0458,0.0413,0.0366,0.0357,0.0388,0.0404,0.0404,0.0403,0.0403,0,0.0312,0.037,0.0424,0.044,0.0498,0.0525,0.0553,0.0605,0.0672,0.0733,0.0799,0.0791,0.0826,0.0746,0.0639,0.0613,0.0587,0.0549,0.0444,0.0439,0.0444,0.0437,0.0522,0.0522,0.0522,0.0522,0.0522,0,0.0353,0.0395,0.0442,0.0472,0.0559,0.057,0.067,0.0704,0.0793,0.091,0.0881,0.0973,0.0864,0.0832,0.0699,0.0585,0.0633,0.0462,0.0442,0.0453,0.0448,0.0469,0.0463,0.0521,0.0521,0.0521,0.0522,0,0.0384,0.041,0.0481,0.0546,0.0578,0.0636,0.0753,0.0837,0.0903,0.106,0.1097,0.1126,0.1077,0.0941,0.0827,0.0687,0.0569,0.0512,0.0509,0.0489,0.0384,0.0381,0.0399,0.0397,0.0396,0.0395,0.0394,0,0.0406,0.0445,0.054,0.0598,0.0628,0.0722,0.081,0.0892,0.1003,0.1163,0.1258,0.1258,0.1267,0.1058,0.0829,0.06,0.0569,0.0455,0.0406,0.0399,0.0378,0.0377,0.0375,0.0415,0.0414,0.0413,0.0413,0,0.0455,0.0484,0.0545,0.0667,0.0756,0.0891,0.1014,0.1121,0.1251,0.137,0.1505,0.1512,0.1327,0.1102,0.0786,0.063,0.0487,0.0435,0.0474,0.0438,0.0411,0.0391,0.039,0.0408,0.0409,0.0409,0.0409,0.041,0.0492,0.0547,0.063,0.0746,0.0867,0.1045,0.1164,0.1308,0.1485,0.1645,0.1639,0.1623,0.1384,0.096,0.0707,0.0443,0.0457,0.0345,0.0348,0.0352,0.0354,0.0326,0.0305,0.0305,0.0305,0.0305,0.0305,0,0.0542,0.0607,0.0711,0.0864,0.1011,0.1075,0.1301,0.1416,0.1614,0.1697,0.1754,0.1491,0.1245,0.0967,0.0574,0.0335,0.0324,0.0255,0.0296,0.0303,0.0308,0.0308,0.0247,0.0246,0.0245,0.0244,0,0,0.0572,0.0668,0.0721,0.0958,0.108,0.1295,0.143,0.1588,0.1683,0.1727,0.1688,0.1611,0.1301,0.0994,0.0688,0.047,0.0437,0.0421,0.0494,0.0586,0.0594,0.0387,0.0397,0,0,0,0,0]}],[{"header":{"parameterUnit":"m.s-1","parameterCategory":2,"la1":30.2991,"la2":30.254,"lo1":-89.0895,"lo2":-89.0444,"dy":0.0017,"dx":0.0017,"nx":28,"ny":28,"refTime":"2025-05-28T03:00:00:Z","depth":"4","parameterNumber":2,"parameterNumberName":"U-component_of_CURRENTS"},"data":[0,0,0,0,0,0,0,0,0,0,0,0,0,0,0,0,0,0,0,0,0,0,0,0,0,0,0,0,0,0,0,0,0,0,0,0,0,0,0,0,0,0,0,0,0,0,0,0,0,0,0,0,0,0,0,0,0,0,0.1441,0.1441,0,0.1439,0.1438,0.1438,0.1476,0.1477,0.1479,0.148,0.1512,0.1512,0.1512,0,0,0,0,0,0,0,0,0,0,0,0,0,0.1453,0.1453,0.1441,0.1441,0.1441,0.1439,0.1438,0.1438,0.1476,0.1478,0.1479,0.1481,0.1512,0.1512,0.1512,0,0,0,0,0,0,0,0,0,0,0,0,0,0.1446,0.1453,0.1441,0.1462,0.1464,0.1439,0.1438,0.1438,0.1476,0.1478,0.148,0.1481,0.1513,0.1512,0.1511,0.1469,0,0,0.151,0.151,0,0,0,0,0,0,0,0,0.1447,0.1445,0.1459,0.1461,0.1463,0.1462,0.1455,0.1451,0.1475,0.1468,0.148,0.1482,0.1499,0.15,0.149,0.1471,0.1472,0.151,0.1509,0.1509,0.1509,0,0,0,0,0,0,0,0.1447,0.1446,0.1437,0.1459,0.1462,0.1464,0.1465,0.1454,0.1471,0.1469,0.1472,0.1476,0.1501,0.1491,0.1492,0.1472,0.151,0.1509,0.1509,0.1509,0.1572,0.1574,0,0,0,0,0,0,0.1452,0.1446,0.1437,0.1437,0.1463,0.1462,0.1463,0.1458,0.1471,0.1475,0.1475,0.1478,0.1491,0.1492,0.1493,0.1556,0.1509,0.1509,0.1508,0.157,0.1572,0.1574,0,0,0,0,0,0,0.1452,0.1451,0.1437,0.1445,0.1444,0.146,0.1454,0.1457,0.1485,0.1475,0.148,0.1504,0.1492,0.1494,0.1517,0.1553,0.1509,0.1508,0.1568,0.1571,0.1573,0.161,0,0,0,0,0,0,0.1452,0.1451,0.1466,0.1445,0.1444,0.1448,0.1453,0.1456,0.1483,0.1489,0.1501,0.1504,0.1494,0.1518,0.1516,0.1552,0.1508,0.1565,0.1569,0.1572,0.1606,0.1614,0.162,0,0,0,0,0,0.1453,0.1456,0.1466,0.1467,0.1458,0.1449,0.1448,0.1464,0.1483,0.1496,0.151,0.1505,0.1542,0.1518,0.1516,0.1552,0.1563,0.1568,0.1572,0.1603,0.1612,0.162,0,0,0,0,0,0,0.1471,0.146,0.1471,0.1473,0.1477,0.1457,0.1472,0.1481,0.1498,0.1517,0.151,0.1513,0.1557,0.1548,0.1522,0.1587,0.156,0.1564,0.1584,0.1593,0.1599,0.1607,0.1507,0,0,0,0,0,0.1481,0.1483,0.1475,0.1482,0.1485,0.1485,0.1492,0.1503,0.1507,0.1518,0.1523,0.1542,0.1565,0.1574,0.1587,0.1601,0.1613,0.1633,0.164,0.1646,0.1654,0.1718,0.1731,0.1589,0.1589,0.1589,0,0,0.1489,0.1487,0.1489,0.1488,0.149,0.1479,0.1494,0.1511,0.1504,0.1517,0.1525,0.1566,0.1577,0.1608,0.1627,0.1607,0.1689,0.1652,0.1656,0.1661,0.1724,0.1737,0.175,0.1592,0.1592,0.1591,0,0,0.1491,0.1506,0.1504,0.1504,0.1518,0.1506,0.1519,0.1519,0.153,0.1543,0.1567,0.1631,0.1634,0.1663,0.1674,0.1726,0.173,0.1744,0.1774,0.1836,0.1848,0.1858,0.1872,0.1883,0.174,0.1741,0.1741,0,0.151,0.1492,0.1506,0.1501,0.1498,0.1518,0.1508,0.1508,0.1519,0.1541,0.1557,0.1649,0.1659,0.172,0.1746,0.1742,0.1766,0.1735,0.1844,0.1855,0.1865,0.1877,0.1889,0.1743,0.1743,0.1742,0.1742,0,0.1492,0.1491,0.149,0.148,0.1485,0.1482,0.148,0.1494,0.152,0.1543,0.1632,0.1677,0.1747,0.1766,0.1765,0.1859,0.1847,0.1849,0.1817,0.1882,0.1889,0.1902,0.1746,0.1745,0.1745,0.1744,0,0,0.1488,0.1477,0.1481,0.1468,0.1473,0.1465,0.1464,0.1474,0.1506,0.1564,0.1633,0.1704,0.1793,0.1815,0.186,0.191,0.1994,0.1915,0.1917,0.1918,0.2109,0.1953,0.1951,0.2025,0.2028,0.203,0.2077,0,0.1468,0.1445,0.1449,0.1423,0.1401,0.142,0.1428,0.1459,0.15,0.1573,0.1674,0.1768,0.179,0.1869,0.1928,0.1997,0.2032,0.1979,0.2056,0.2057,0.1904,0.1962,0.204,0.2086,0.2089,0.2091,0.2092,0,0.1442,0.1422,0.1399,0.139,0.139,0.1394,0.1423,0.1435,0.1539,0.1607,0.1736,0.182,0.1947,0.1955,0.2094,0.2067,0.2092,0.2121,0.2124,0.1975,0.1925,0.2016,0.2114,0.2113,0.2111,0.211,0.2108,0,0.1407,0.1385,0.1362,0.1355,0.1357,0.1371,0.1389,0.1466,0.1516,0.1657,0.1752,0.1897,0.2023,0.2086,0.2159,0.2144,0.2285,0.2263,0.2132,0.212,0.2229,0.2217,0.2336,0.2336,0.2336,0.2336,0.2336,0,0.136,0.1342,0.1352,0.1332,0.1337,0.1365,0.1407,0.1461,0.1595,0.1687,0.1802,0.1908,0.2072,0.2164,0.2188,0.2201,0.2311,0.2145,0.2133,0.2239,0.2229,0.2236,0.2223,0.2337,0.2337,0.2337,0.2336,0,0.1321,0.1325,0.1293,0.1302,0.1317,0.133,0.1414,0.1448,0.1599,0.1727,0.1794,0.1974,0.2084,0.2181,0.2295,0.2238,0.2254,0.2218,0.2313,0.2305,0.2032,0.2022,0.207,0.2065,0.2061,0.2057,0.2055,0,0.1286,0.1267,0.1275,0.1264,0.1271,0.1299,0.1323,0.145,0.1507,0.1735,0.1798,0.1969,0.2062,0.21,0.2194,0.2213,0.2186,0.2159,0.21,0.2027,0.2011,0.2007,0.2002,0.2048,0.2047,0.2046,0.2045,0,0.1204,0.1234,0.1216,0.1198,0.1205,0.1212,0.1271,0.1316,0.1476,0.1642,0.177,0.1833,0.195,0.2018,0.2057,0.206,0.2161,0.2115,0.2123,0.2067,0.2001,0.1988,0.1988,0.203,0.2032,0.2034,0.2035,0,0.1159,0.113,0.1117,0.1096,0.1113,0.1104,0.1144,0.1211,0.1301,0.1574,0.1606,0.1777,0.1944,0.1937,0.1964,0.1968,0.1929,0.1847,0.1868,0.1885,0.1801,0.1688,0.1619,0,0,0,0,0,0.1099,0.1038,0.0997,0.096,0.0993,0.101,0.1091,0.1147,0.1322,0.1377,0.1503,0.1595,0.1675,0.1745,0.1712,0.1843,0.1909,0.1789,0.1817,0.1951,0.1967,0.1884,0,0,0,0,0,0,0.1032,0.1003,0.0948,0.0865,0.0844,0.0859,0.0911,0.1031,0.107,0.1274,0.1325,0.149,0.1582,0.1702,0.1689,0.1708,0.1684,0.19,0.1895,0.1941,0.1956,0.197,0.189,0,0,0,0,0]},{"header":{"parameterUnit":"m.s-1","parameterCategory":2,"la1":30.2991,"la2":30.254,"lo1":-89.0895,"lo2":-89.0444,"dy":0.0017,"dx":0.0017,"nx":28,"ny":28,"refTime":"2025-05-28T03:00:00:Z","depth":"4","parameterNumber":3,"parameterNumberName":"V-component_of_CURRENTS"},"data":[0,0,0,0,0,0,0,0,0,0,0,0,0,0,0,0,0,0,0,0,0,0,0,0,0,0,0,0,0,0,0,0,0,0,0,0,0,0,0,0,0,0,0,0,0,0,0,0,0,0,0,0,0,0,0,0,0,0,0.0123,0.0123,0,0.0133,0.0133,0.0133,0.0136,0.0136,0.0136,0.0136,0.016,0.0161,0.0162,0,0,0,0,0,0,0,0,0,0,0,0,0,0.0092,0.0093,0.0123,0.0123,0.0123,0.0133,0.0133,0.0133,0.0136,0.0136,0.0136,0.0136,0.016,0.0161,0.0162,0,0,0,0,0,0,0,0,0,0,0,0,0,0.0104,0.0093,0.0123,0.0125,0.0126,0.0133,0.0133,0.0134,0.0136,0.0136,0.0136,0.0136,0.016,0.0161,0.0162,0.0171,0,0,0.0165,0.0166,0,0,0,0,0,0,0,0,0.0104,0.0106,0.0125,0.0125,0.0126,0.0133,0.0131,0.0147,0.0136,0.0132,0.0136,0.0136,0.0152,0.0154,0.0156,0.0172,0.0173,0.0165,0.0166,0.0166,0.0167,0,0,0,0,0,0,0,0.0103,0.0105,0.0127,0.0125,0.0125,0.0122,0.0123,0.0134,0.0143,0.0133,0.0133,0.0134,0.0153,0.0155,0.0157,0.0173,0.0165,0.0166,0.0167,0.0167,0.0201,0.0201,0,0,0,0,0,0,0.0102,0.0104,0.0127,0.0127,0.0114,0.0122,0.0124,0.0131,0.0143,0.0144,0.0134,0.0134,0.0153,0.0156,0.0158,0.019,0.0166,0.0167,0.0168,0.0201,0.0201,0.0201,0,0,0,0,0,0,0.0102,0.0105,0.0126,0.0116,0.0118,0.0123,0.013,0.0131,0.0137,0.0144,0.0145,0.0139,0.0153,0.0156,0.0172,0.019,0.0168,0.0169,0.02,0.0201,0.0201,0.024,0,0,0,0,0,0,0.0101,0.0104,0.011,0.0116,0.0119,0.0137,0.0131,0.0131,0.0137,0.0137,0.0148,0.015,0.0154,0.017,0.0173,0.0191,0.017,0.02,0.0201,0.0201,0.0239,0.0242,0.0245,0,0,0,0,0,0.01,0.0111,0.011,0.0113,0.0126,0.0137,0.0139,0.0141,0.0137,0.0145,0.015,0.015,0.0175,0.0171,0.0174,0.0193,0.02,0.0201,0.0201,0.0237,0.0241,0.0245,0,0,0,0,0,0,0.0101,0.0112,0.0112,0.0125,0.0132,0.0138,0.0145,0.0144,0.0153,0.0154,0.0157,0.016,0.0178,0.0177,0.0173,0.0202,0.0186,0.0187,0.0213,0.0216,0.0219,0.0228,0.0171,0,0,0,0,0,0.0103,0.0114,0.0122,0.0132,0.0138,0.0141,0.0146,0.0148,0.0155,0.0159,0.0165,0.0171,0.0182,0.0192,0.0198,0.0219,0.0195,0.023,0.0233,0.0236,0.0243,0.0217,0.0218,0.0203,0.0203,0.0203,0,0,0.0107,0.0114,0.012,0.0133,0.014,0.0161,0.0144,0.0156,0.0177,0.0161,0.0189,0.0182,0.0188,0.0209,0.0217,0.0213,0.0225,0.0236,0.0239,0.0245,0.0218,0.0219,0.022,0.0204,0.0203,0.0203,0,0,0.0123,0.0126,0.0144,0.0154,0.0166,0.0172,0.0177,0.0185,0.0193,0.0214,0.0207,0.0211,0.0229,0.0236,0.0243,0.0266,0.0238,0.0264,0.0295,0.0269,0.027,0.0271,0.0233,0.023,0.027,0.027,0.027,0,0.0127,0.0154,0.015,0.0172,0.0191,0.0182,0.0212,0.022,0.0231,0.0244,0.023,0.0247,0.0246,0.0276,0.028,0.0276,0.0246,0.0283,0.0274,0.0274,0.0274,0.0235,0.0231,0.0272,0.0272,0.0272,0.0272,0,0.0161,0.0184,0.0197,0.0227,0.0243,0.0266,0.0279,0.0295,0.0299,0.0301,0.0319,0.0308,0.032,0.0316,0.0308,0.0314,0.0286,0.0276,0.0266,0.0278,0.0235,0.0231,0.0275,0.0274,0.0274,0.0273,0,0,0.0169,0.0214,0.0219,0.0253,0.0277,0.03,0.0335,0.0368,0.0396,0.0388,0.0415,0.0415,0.0391,0.0395,0.0377,0.0354,0.0321,0.0316,0.0314,0.028,0.0248,0.0241,0.0234,0.0303,0.0303,0.0303,0.0213,0,0.0202,0.0259,0.0273,0.0338,0.0374,0.0387,0.0425,0.0448,0.0456,0.0475,0.0454,0.0467,0.0428,0.043,0.04,0.0342,0.0312,0.0345,0.0239,0.0236,0.023,0.023,0.0302,0.021,0.0209,0.0208,0.0207,0,0.0235,0.0274,0.0339,0.041,0.0428,0.0466,0.0529,0.0559,0.0574,0.0578,0.0572,0.0542,0.0517,0.0476,0.0383,0.0401,0.033,0.0276,0.0271,0.0251,0.0221,0.0197,0.0198,0.0199,0.02,0.02,0.0201,0,0.0251,0.0324,0.0383,0.0406,0.0476,0.0519,0.056,0.0591,0.0631,0.0639,0.0651,0.0606,0.0589,0.0496,0.038,0.0377,0.0259,0.0245,0.0172,0.0169,0.0185,0.0185,0.0178,0.0179,0.0179,0.0179,0.0179,0,0.0284,0.0334,0.0402,0.0436,0.0525,0.0555,0.0637,0.0669,0.0707,0.075,0.0703,0.0707,0.059,0.0507,0.0394,0.0266,0.0269,0.0177,0.0151,0.0201,0.0204,0.018,0.0182,0.0176,0.0176,0.0177,0.0178,0,0.0294,0.0332,0.041,0.0497,0.0536,0.0597,0.0704,0.0759,0.078,0.0832,0.0837,0.0781,0.0672,0.0542,0.0386,0.0295,0.0169,0.0123,0.0178,0.0156,0.0089,0.0093,0.0035,0.0034,0.0033,0.0033,0.0032,0,0.0306,0.0344,0.0452,0.0507,0.0555,0.0653,0.0727,0.0796,0.0849,0.0871,0.0893,0.0811,0.0752,0.0523,0.0381,0.0173,0.0145,0.0073,0.0089,0.0096,0.0076,0.0082,0.0087,0.0031,0.0031,0.0031,0.003,0,0.0333,0.0365,0.0428,0.0534,0.0628,0.0735,0.0837,0.0885,0.0951,0.0968,0.0936,0.0825,0.0703,0.0524,0.0367,0.0216,0.0117,0.0065,0.0066,0.008,0.009,0.0073,0.0079,0.0028,0.0028,0.0028,0.0028,0,0.0349,0.0391,0.0466,0.0567,0.0674,0.0782,0.0845,0.0911,0.0968,0.0989,0.0969,0.0838,0.0765,0.0545,0.0395,0.0253,0.0217,0.0164,0.0159,0.016,0.0225,0.0259,0.0227,0,0,0,0,0,0.0367,0.0413,0.0497,0.0609,0.0711,0.0783,0.0902,0.0954,0.1014,0.1,0.099,0.0874,0.066,0.0561,0.0419,0.0377,0.019,0.0204,0.0126,0.0013,0.0016,0.0071,0,0,0,0,0,0,0.0376,0.0447,0.0491,0.0621,0.07,0.083,0.0911,0.0961,0.0952,0.0972,0.0858,0.082,0.0609,0.0733,0.0405,0.0364,0.0292,0.011,0.0107,0.0012,0.0014,0.0017,0.0074,0,0,0,0,0]}]]